GW0294 Weather Reports


Display with metric or nautical units.
time (UTC)temp
F
wind
direction
speed
MPH
gust
MPH
rain 1hr
in
rain 24hr
in
rain mn
in
humidity
%
barometer
mb
20260503034527 52 206 0.0 0.0 0.00 0.00 0.00 49 1015.5
20260503033526 51 118 0.0 0.0 0.00 0.00 0.00 50 1015.5
20260503032524 50 160 0.0 0.0 0.00 0.00 0.00 52 1015.5
20260503031523 50 220 0.0 0.0 0.00 0.00 0.00 52 1015.6
20260503030525 50 45 0.0 0.0 0.00 0.00 0.00 52 1015.9
20260503024525 51 180 0.0 0.0 0.00 0.00 0.00 51 1015.9
20260503023623 51 143 0.0 0.0 0.00 0.00 0.00 52 1015.9
20260503022624 51 45 0.0 0.0 0.00 0.00 0.00 50 1015.9
20260503020723 52 45 0.0 0.0 0.00 0.00 0.00 50 1016.0
20260503020624 52 45 0.0 0.0 0.00 0.00 0.00 50 1015.9
20260503015623 52 45 0.0 0.0 0.00 0.00 0.00 49 1015.9
20260503013623 53 45 0.0 0.0 0.00 0.00 0.00 46 1015.8
20260503012641 54 45 0.0 0.0 0.00 0.00 0.00 47 1015.9
20260503011624 55 45 0.0 0.0 0.00 0.00 0.00 44 1015.8
20260503010724 55 22 0.0 0.0 0.00 0.00 0.00 41 1015.9
20260503010624 55 22 0.0 0.0 0.00 0.00 0.00 42 1015.9
20260503005623 56 22 0.0 0.0 0.00 0.00 0.00 39 1015.8
20260503004640 57 90 0.0 0.0 0.00 0.00 0.00 39 1016.0
20260503003724 58 180 0.0 0.0 0.00 0.00 0.00 38 1015.9
20260503002739 59 218 0.0 0.0 0.00 0.00 0.00 36 1015.9
20260503000824 60 218 0.0 0.0 0.00 0.00 0.00 34 1016.1
20260502235826 60 243 0.0 0.0 0.00 0.00 0.00 33 1016.2
20260502234839 60 215 0.0 0.0 0.00 0.00 0.00 32 1016.3
20260502233026 61 232 0.0 0.0 0.00 0.00 0.00 32 1016.4
20260502232923 61 223 0.0 0.0 0.00 0.00 0.00 32 1016.3
20260502230024 62 223 0.0 0.0 0.00 0.00 0.00 32 1016.5
20260502225926 62 230 0.0 0.0 0.00 0.00 0.00 32 1016.5
20260502224925 62 235 0.0 0.0 0.00 0.00 0.00 31 1016.6
20260502224024 62 230 0.0 0.0 0.00 0.00 0.00 31 1016.8
20260502223024 62 221 0.0 0.0 0.00 0.00 0.00 31 1017.0
20260502222926 62 228 0.0 0.0 0.00 0.00 0.00 31 1017.0
20260502222025 62 212 0.0 0.0 0.00 0.00 0.00 31 1017.1
20260502221123 62 210 0.0 0.0 0.00 0.00 0.00 30 1017.0
20260502215222 62 211 0.0 0.0 0.00 0.00 0.00 30 1017.1
20260502214224 62 224 0.0 0.0 0.00 0.00 0.00 31 1017.3
20260502213225 62 183 0.0 0.0 0.00 0.00 0.00 32 1017.3
20260502212323 61 212 0.0 0.0 0.00 0.00 0.00 31 1017.7
20260502211325 61 219 0.0 0.0 0.00 0.00 0.00 31 1017.7
20260502210323 61 233 0.0 0.0 0.00 0.00 0.00 32 1017.9
20260502205324 61 214 0.0 0.0 0.00 0.00 0.00 33 1018.0
20260502205223 61 220 0.0 0.0 0.00 0.00 0.00 33 1018.0
20260502202324 60 210 0.0 0.0 0.00 0.00 0.00 33 1018.4
20260502201325 59 230 0.0 0.0 0.00 0.00 0.00 34 1018.7
20260502200324 59 217 0.0 0.0 0.00 0.00 0.00 34 1018.7
20260502195325 60 225 0.0 0.0 0.00 0.00 0.00 33 1019.0
20260502194240 59 191 0.0 0.0 0.00 0.00 0.00 34 1019.1
20260502193240 59 211 0.0 0.0 0.00 0.00 0.00 33 1019.3
20260502192340 60 206 0.0 0.0 0.00 0.00 0.00 33 1019.3
20260502191423 59 202 0.0 0.0 0.00 0.00 0.00 35 1019.5
20260502185524 58 213 0.0 0.0 0.00 0.00 0.00 33 1019.8
20260502184624 59 194 0.0 0.0 0.00 0.00 0.00 33 1020.0
20260502184522 59 173 0.0 0.0 0.00 0.00 0.00 33 1020.0
20260502183527 58 205 0.0 0.0 0.00 0.00 0.00 33 1020.1
20260502182525 58 195 0.0 0.0 0.00 0.00 0.00 34 1020.1
20260502180627 58 204 0.0 0.0 0.00 0.00 0.00 34 1020.3
20260502163623 55 195 0.0 0.0 0.00 0.00 0.00 35 1021.1
20260502151824 53 212 0.0 0.0 0.00 0.00 0.00 44 1021.9
20260502150823 52 229 0.0 0.0 0.00 0.00 0.00 46 1022.2
20260502123122 38 45 0.0 0.0 0.00 0.00 0.00 77 1022.5
20260502122126 36 45 0.0 0.0 0.00 0.00 0.00 82 1022.4
20260502121123 34 45 0.0 0.0 0.00 0.00 0.00 85 1022.2
20260502120222 34 45 0.0 0.0 0.00 0.00 0.00 85 1022.0
20260502114223 33 45 0.0 0.0 0.00 0.00 0.00 85 1021.8
20260502114124 33 45 0.0 0.0 0.00 0.00 0.00 85 1021.9
20260502113124 33 45 0.0 0.0 0.00 0.00 0.00 86 1021.8
20260502112222 33 45 0.0 0.0 0.00 0.00 0.00 87 1021.7
20260502111223 33 45 0.0 0.0 0.00 0.00 0.00 86 1021.6
20260502110224 33 45 0.0 0.0 0.00 0.00 0.00 86 1021.7
20260502105322 33 45 0.0 0.0 0.00 0.00 0.00 85 1021.8
20260502104322 33 45 0.0 0.0 0.00 0.00 0.00 84 1021.7
20260502103340 33 45 0.0 0.0 0.00 0.00 0.00 85 1021.8
20260502102324 33 45 0.0 0.0 0.00 0.00 0.00 83 1021.7
20260502101341 33 45 0.0 0.0 0.00 0.00 0.00 83 1021.8
20260502100422 33 45 0.0 0.0 0.00 0.00 0.00 83 1021.8
20260502091425 33 45 0.0 0.0 0.00 0.00 0.00 83 1021.6
20260502090522 33 45 0.0 0.0 0.00 0.00 0.00 84 1021.7
20260502070623 35 45 0.0 0.0 0.00 0.00 0.00 78 1021.7
20260502065623 35 45 0.0 0.0 0.00 0.00 0.00 76 1021.9
20260502064622 35 45 0.0 0.0 0.00 0.00 0.00 74 1022.0
20260502062638 35 45 0.0 0.0 0.00 0.00 0.00 74 1022.0
20260502061623 35 45 0.0 0.0 0.00 0.00 0.00 75 1022.0
20260502061523 35 45 0.0 0.0 0.00 0.00 0.00 75 1021.9
20260502060541 36 45 0.0 0.0 0.00 0.00 0.00 75 1021.8
20260502055624 36 45 0.0 0.0 0.00 0.00 0.00 73 1021.9
20260502054623 36 45 0.0 0.0 0.00 0.00 0.00 75 1021.9
20260502053722 37 45 0.0 0.0 0.00 0.00 0.00 74 1021.8
20260502052740 37 45 0.0 0.0 0.00 0.00 0.00 72 1021.9
20260502051823 37 45 0.0 0.0 0.00 0.00 0.00 72 1021.9
20260502051737 37 45 0.0 0.0 0.00 0.00 0.00 73 1021.8
20260502050822 37 45 0.0 0.0 0.00 0.00 0.00 72 1021.8
20260502045818 37 45 0.0 0.0 0.00 0.00 0.00 71 1021.8
20260502043918 38 45 0.0 0.0 0.00 0.00 0.00 71 1021.8
20260502042917 38 45 0.0 0.0 0.00 0.00 0.00 68 1021.8
20260502041918 38 45 0.0 0.0 0.00 0.00 0.00 64 1021.7